Year,Month,Day,Hour,Minute,Value (Times are PST for temperature in C)
2021,05,04,00,00,7.60
2021,05,04,00,01,7.60
2021,05,04,00,02,7.60
2021,05,04,00,03,7.60
2021,05,04,00,04,7.60
2021,05,04,00,05,7.60
2021,05,04,00,06,7.50
2021,05,04,00,07,7.50
2021,05,04,00,08,7.50
2021,05,04,00,09,7.50
2021,05,04,00,10,7.40
2021,05,04,00,11,7.40
2021,05,04,00,12,7.40
2021,05,04,00,13,7.40
2021,05,04,00,14,7.40
2021,05,04,00,15,7.40
2021,05,04,00,16,7.40
2021,05,04,00,17,7.40
2021,05,04,00,18,7.40
2021,05,04,00,19,7.40
2021,05,04,00,20,7.40
2021,05,04,00,21,7.40
2021,05,04,00,22,7.40
2021,05,04,00,23,7.40
2021,05,04,00,24,7.50
2021,05,04,00,25,7.50
2021,05,04,00,26,7.50
2021,05,04,00,27,7.50
2021,05,04,00,28,7.50
2021,05,04,00,29,7.40
2021,05,04,00,30,7.40
2021,05,04,00,31,7.40
2021,05,04,00,32,7.40
2021,05,04,00,33,7.40
2021,05,04,00,34,7.40
2021,05,04,00,35,7.40
2021,05,04,00,36,7.30
2021,05,04,00,37,7.30
2021,05,04,00,38,7.30
2021,05,04,00,39,7.30
2021,05,04,00,40,7.30
2021,05,04,00,41,7.30
2021,05,04,00,42,7.20
2021,05,04,00,43,7.20
2021,05,04,00,44,7.20
2021,05,04,00,45,7.20
2021,05,04,00,46,7.20
2021,05,04,00,47,7.20
2021,05,04,00,48,7.20
2021,05,04,00,49,7.20
2021,05,04,00,50,7.10
2021,05,04,00,51,7.10
2021,05,04,00,52,7.10
2021,05,04,00,53,7.10
2021,05,04,00,54,7.00
2021,05,04,00,55,7.00
2021,05,04,00,56,7.00
2021,05,04,00,57,7.00
2021,05,04,00,58,7.00
2021,05,04,00,59,7.00
2021,05,04,01,00,6.90
2021,05,04,01,01,6.90
2021,05,04,01,02,6.90
2021,05,04,01,03,6.90
2021,05,04,01,04,6.90
2021,05,04,01,05,6.90
2021,05,04,01,06,6.90
2021,05,04,01,07,6.90
2021,05,04,01,08,6.90
2021,05,04,01,09,6.90
2021,05,04,01,10,6.90
2021,05,04,01,11,6.80
2021,05,04,01,12,6.80
2021,05,04,01,13,6.80
2021,05,04,01,14,6.80
2021,05,04,01,15,6.80
2021,05,04,01,16,6.80
2021,05,04,01,17,6.80
2021,05,04,01,18,6.80
2021,05,04,01,19,6.80
2021,05,04,01,20,6.80
2021,05,04,01,21,6.80
2021,05,04,01,22,6.80
2021,05,04,01,23,6.80
2021,05,04,01,24,6.80
2021,05,04,01,25,6.80
2021,05,04,01,26,6.80
2021,05,04,01,27,6.80
2021,05,04,01,28,6.80
2021,05,04,01,29,6.80
2021,05,04,01,30,6.80
2021,05,04,01,31,6.80
2021,05,04,01,32,6.80
2021,05,04,01,33,6.80
2021,05,04,01,34,6.80
2021,05,04,01,35,6.80
2021,05,04,01,36,6.80
2021,05,04,01,37,6.80
2021,05,04,01,38,6.70
2021,05,04,01,39,6.70
2021,05,04,01,40,6.70
2021,05,04,01,41,6.70
2021,05,04,01,42,6.60
2021,05,04,01,43,6.60
2021,05,04,01,44,6.60
2021,05,04,01,45,6.60
2021,05,04,01,46,6.50
2021,05,04,01,47,6.50
2021,05,04,01,48,6.50
2021,05,04,01,49,6.50
2021,05,04,01,50,6.50
2021,05,04,01,51,6.40
2021,05,04,01,52,6.40
2021,05,04,01,53,6.40
2021,05,04,01,54,6.40
2021,05,04,01,55,6.40
2021,05,04,01,56,6.40
2021,05,04,01,57,6.40
2021,05,04,01,58,6.40
2021,05,04,01,59,6.30
2021,05,04,02,00,6.30
2021,05,04,02,01,6.30
2021,05,04,02,02,6.30
2021,05,04,02,03,6.30
2021,05,04,02,04,6.30
2021,05,04,02,05,6.30
2021,05,04,02,06,6.30
2021,05,04,02,07,6.30
2021,05,04,02,08,6.30
2021,05,04,02,09,6.30
2021,05,04,02,10,6.30
2021,05,04,02,11,6.20
2021,05,04,02,12,6.20
2021,05,04,02,13,6.20
2021,05,04,02,14,6.20
2021,05,04,02,15,6.20
2021,05,04,02,16,6.20
2021,05,04,02,17,6.20
2021,05,04,02,18,6.20
2021,05,04,02,19,6.20
2021,05,04,02,20,6.20
2021,05,04,02,21,6.20
2021,05,04,02,22,6.10
2021,05,04,02,23,6.10
2021,05,04,02,24,6.10
2021,05,04,02,25,6.10
2021,05,04,02,26,6.10
2021,05,04,02,27,6.10
2021,05,04,02,28,6.00
2021,05,04,02,29,6.00
2021,05,04,02,30,6.10
2021,05,04,02,31,6.10
2021,05,04,02,32,6.10
2021,05,04,02,33,6.10
2021,05,04,02,34,6.10
2021,05,04,02,35,6.10
2021,05,04,02,36,6.10
2021,05,04,02,37,6.10
2021,05,04,02,38,6.10
2021,05,04,02,39,6.10
2021,05,04,02,40,6.00
2021,05,04,02,41,6.00
2021,05,04,02,42,6.00
2021,05,04,02,43,6.00
2021,05,04,02,44,6.00
2021,05,04,02,45,6.00
2021,05,04,02,46,6.00
2021,05,04,02,47,6.00
2021,05,04,02,48,6.00
2021,05,04,02,49,6.00
2021,05,04,02,50,6.00
2021,05,04,02,51,6.00
2021,05,04,02,52,6.10
2021,05,04,02,53,6.10
2021,05,04,02,54,6.10
2021,05,04,02,55,6.00
2021,05,04,02,56,6.00
2021,05,04,02,57,6.00
2021,05,04,02,58,6.00
2021,05,04,02,59,6.00
2021,05,04,03,00,6.00
2021,05,04,03,01,6.00
2021,05,04,03,02,6.00
2021,05,04,03,03,6.00
2021,05,04,03,04,6.00
2021,05,04,03,05,6.00
2021,05,04,03,06,5.90
2021,05,04,03,07,5.90
2021,05,04,03,08,5.90
2021,05,04,03,09,6.00
2021,05,04,03,10,6.00
2021,05,04,03,11,6.00
2021,05,04,03,12,6.00
2021,05,04,03,13,6.00
2021,05,04,03,14,6.00
2021,05,04,03,15,6.00
2021,05,04,03,16,6.10
2021,05,04,03,17,6.10
2021,05,04,03,18,6.10
2021,05,04,03,19,6.10
2021,05,04,03,20,6.10
2021,05,04,03,21,6.10
2021,05,04,03,22,6.10
2021,05,04,03,23,6.10
2021,05,04,03,24,6.10
2021,05,04,03,25,6.10
2021,05,04,03,26,6.10
2021,05,04,03,27,6.20
2021,05,04,03,28,6.20
2021,05,04,03,29,6.20
2021,05,04,03,30,6.20
2021,05,04,03,31,6.20
2021,05,04,03,32,6.20
2021,05,04,03,33,6.20
2021,05,04,03,34,6.20
2021,05,04,03,35,6.20
2021,05,04,03,36,6.30
2021,05,04,03,37,6.30
2021,05,04,03,38,6.30
2021,05,04,03,39,6.30
2021,05,04,03,40,6.30
2021,05,04,03,41,6.30
2021,05,04,03,42,6.30
2021,05,04,03,43,6.30
2021,05,04,03,44,6.30
2021,05,04,03,45,6.30
2021,05,04,03,46,6.30
2021,05,04,03,47,6.30
2021,05,04,03,48,6.30
2021,05,04,03,49,6.30
2021,05,04,03,50,6.20
2021,05,04,03,51,6.20
2021,05,04,03,52,6.20
2021,05,04,03,53,6.20
2021,05,04,03,54,6.10
2021,05,04,03,55,6.10
2021,05,04,03,56,6.10
2021,05,04,03,57,6.10
2021,05,04,03,58,6.10
2021,05,04,03,59,6.00
2021,05,04,04,00,6.00
2021,05,04,04,01,6.00
2021,05,04,04,02,6.10
2021,05,04,04,03,6.10
2021,05,04,04,04,6.10
2021,05,04,04,05,6.10
2021,05,04,04,06,6.10
2021,05,04,04,07,6.10
2021,05,04,04,08,6.10
2021,05,04,04,09,6.10
2021,05,04,04,10,6.10
2021,05,04,04,11,6.10
2021,05,04,04,12,6.10
2021,05,04,04,13,6.10
2021,05,04,04,14,6.10
2021,05,04,04,15,6.10
2021,05,04,04,16,6.10
2021,05,04,04,17,6.10
2021,05,04,04,18,6.10
2021,05,04,04,19,6.10
2021,05,04,04,20,6.10
2021,05,04,04,21,6.10
2021,05,04,04,22,6.10
2021,05,04,04,23,6.10
2021,05,04,04,24,6.10
2021,05,04,04,25,6.10
2021,05,04,04,26,6.10
2021,05,04,04,27,6.00
2021,05,04,04,28,6.00
2021,05,04,04,29,6.00
2021,05,04,04,30,6.00
2021,05,04,04,31,5.90
2021,05,04,04,32,5.90
2021,05,04,04,33,5.90
2021,05,04,04,34,5.90
2021,05,04,04,35,5.90
2021,05,04,04,36,5.90
2021,05,04,04,37,5.90
2021,05,04,04,38,5.90
2021,05,04,04,39,5.90
2021,05,04,04,40,5.90
2021,05,04,04,41,5.90
2021,05,04,04,42,5.90
2021,05,04,04,43,5.90
2021,05,04,04,44,5.90
2021,05,04,04,45,5.90
2021,05,04,04,46,5.90
2021,05,04,04,47,5.90
2021,05,04,04,48,5.90
2021,05,04,04,49,5.90
2021,05,04,04,50,5.90
2021,05,04,04,51,5.90
2021,05,04,04,52,5.90
2021,05,04,04,53,5.80
2021,05,04,04,54,5.80
2021,05,04,04,55,5.80
2021,05,04,04,56,5.80
2021,05,04,04,57,5.80
2021,05,04,04,58,5.70
2021,05,04,04,59,5.70
2021,05,04,05,00,5.70
2021,05,04,05,01,5.70
2021,05,04,05,02,5.70
2021,05,04,05,03,5.70
2021,05,04,05,04,5.70
2021,05,04,05,05,5.70
2021,05,04,05,06,5.70
2021,05,04,05,07,5.70
2021,05,04,05,08,5.70
2021,05,04,05,09,5.70
2021,05,04,05,10,5.70
2021,05,04,05,11,5.70
2021,05,04,05,12,5.70
2021,05,04,05,13,5.70
2021,05,04,05,14,5.70
2021,05,04,05,15,5.70
2021,05,04,05,16,5.70
2021,05,04,05,17,5.70
2021,05,04,05,18,5.70
2021,05,04,05,19,5.70
2021,05,04,05,20,5.70
2021,05,04,05,21,5.70
2021,05,04,05,22,5.80
2021,05,04,05,23,5.80
2021,05,04,05,24,5.80
2021,05,04,05,25,5.80
2021,05,04,05,26,5.80
2021,05,04,05,27,5.90
2021,05,04,05,28,5.90
2021,05,04,05,29,5.90
2021,05,04,05,30,5.90
2021,05,04,05,31,5.90
2021,05,04,05,32,6.00
2021,05,04,05,33,6.00
2021,05,04,05,34,6.10
2021,05,04,05,35,6.10
2021,05,04,05,36,6.10
2021,05,04,05,37,6.10
2021,05,04,05,38,6.10
2021,05,04,05,39,6.10
2021,05,04,05,40,6.20
2021,05,04,05,41,6.20
2021,05,04,05,42,6.20
2021,05,04,05,43,6.20
2021,05,04,05,44,6.20
2021,05,04,05,45,6.20
2021,05,04,05,46,6.20
2021,05,04,05,47,6.20
2021,05,04,05,48,6.20
2021,05,04,05,49,6.20
2021,05,04,05,50,6.20
2021,05,04,05,51,6.20
2021,05,04,05,52,6.30
2021,05,04,05,53,6.30
2021,05,04,05,54,6.30
2021,05,04,05,55,6.30
2021,05,04,05,56,6.30
2021,05,04,05,57,6.30
2021,05,04,05,58,6.30
2021,05,04,05,59,6.30
2021,05,04,06,00,6.30
2021,05,04,06,01,6.30
2021,05,04,06,02,6.30
2021,05,04,06,03,6.30
2021,05,04,06,04,6.40
2021,05,04,06,05,6.40
2021,05,04,06,06,6.40
2021,05,04,06,07,6.40
2021,05,04,06,08,6.40
2021,05,04,06,09,6.40
2021,05,04,06,10,6.40
2021,05,04,06,11,6.40
2021,05,04,06,12,6.50
2021,05,04,06,13,6.50
2021,05,04,06,14,6.50
2021,05,04,06,15,6.50
2021,05,04,06,16,6.50
2021,05,04,06,17,6.60
2021,05,04,06,18,6.60
2021,05,04,06,19,6.60
2021,05,04,06,20,6.60
2021,05,04,06,21,6.60
2021,05,04,06,22,6.70
2021,05,04,06,23,6.70
2021,05,04,06,24,6.70
2021,05,04,06,25,6.70
2021,05,04,06,26,6.70
2021,05,04,06,27,6.70
2021,05,04,06,28,6.80
2021,05,04,06,29,6.80
2021,05,04,06,30,6.80
2021,05,04,06,31,6.80
2021,05,04,06,32,6.80
2021,05,04,06,33,6.90
2021,05,04,06,34,6.90
2021,05,04,06,35,6.90
2021,05,04,06,36,6.90
2021,05,04,06,37,6.90
2021,05,04,06,38,6.90
2021,05,04,06,39,6.90
2021,05,04,06,40,7.00
2021,05,04,06,41,7.00
2021,05,04,06,42,7.00
2021,05,04,06,43,7.00
2021,05,04,06,44,7.10
2021,05,04,06,45,7.10
2021,05,04,06,46,7.10
2021,05,04,06,47,7.10
2021,05,04,06,48,7.10
2021,05,04,06,49,7.10
2021,05,04,06,50,7.10
2021,05,04,06,51,7.10
2021,05,04,06,52,7.10
2021,05,04,06,53,7.20
2021,05,04,06,54,7.20
2021,05,04,06,55,7.20
2021,05,04,06,56,7.20
2021,05,04,06,57,7.20
2021,05,04,06,58,7.20
2021,05,04,06,59,7.20
2021,05,04,07,00,7.30
2021,05,04,07,01,7.30
2021,05,04,07,02,7.30
2021,05,04,07,03,7.30
2021,05,04,07,04,7.30
2021,05,04,07,05,7.30
2021,05,04,07,06,7.30
2021,05,04,07,07,7.40
2021,05,04,07,08,7.40
2021,05,04,07,09,7.40
2021,05,04,07,10,7.40
2021,05,04,07,11,7.50
2021,05,04,07,12,7.50
2021,05,04,07,13,7.60
2021,05,04,07,14,7.60
2021,05,04,07,15,7.60
2021,05,04,07,16,7.70
2021,05,04,07,17,7.70
2021,05,04,07,18,7.70
2021,05,04,07,19,7.80
2021,05,04,07,20,7.80
2021,05,04,07,21,7.80
2021,05,04,07,22,7.80
2021,05,04,07,23,7.80
2021,05,04,07,24,7.80
2021,05,04,07,25,7.80
2021,05,04,07,26,7.90
2021,05,04,07,27,7.90
2021,05,04,07,28,7.90
2021,05,04,07,29,7.90
2021,05,04,07,30,7.90
2021,05,04,07,31,8.00
2021,05,04,07,32,8.00
2021,05,04,07,33,8.00
2021,05,04,07,34,8.10
2021,05,04,07,35,8.10
2021,05,04,07,36,8.10
2021,05,04,07,37,8.10
2021,05,04,07,38,8.10
2021,05,04,07,39,8.10
2021,05,04,07,40,8.10
2021,05,04,07,41,8.20
2021,05,04,07,42,8.20
2021,05,04,07,43,8.20
2021,05,04,07,44,8.20
2021,05,04,07,45,8.30
2021,05,04,07,46,8.30
2021,05,04,07,47,8.30
2021,05,04,07,48,8.30
2021,05,04,07,49,8.30
2021,05,04,07,50,8.30
2021,05,04,07,51,8.30
2021,05,04,07,52,8.30
2021,05,04,07,53,8.30
2021,05,04,07,54,8.40
2021,05,04,07,55,8.40
2021,05,04,07,56,8.40
2021,05,04,07,57,8.40
2021,05,04,07,58,8.40
2021,05,04,07,59,8.40
2021,05,04,08,00,8.40
2021,05,04,08,01,8.50
2021,05,04,08,02,8.50
2021,05,04,08,03,8.50
2021,05,04,08,04,8.60
2021,05,04,08,05,8.60
2021,05,04,08,06,8.60
2021,05,04,08,07,8.70
2021,05,04,08,08,8.70
2021,05,04,08,09,8.70
2021,05,04,08,10,8.80
2021,05,04,08,11,8.80
2021,05,04,08,12,8.80
2021,05,04,08,13,8.90
2021,05,04,08,14,8.90
2021,05,04,08,15,8.90
2021,05,04,08,16,8.90
2021,05,04,08,17,8.90
2021,05,04,08,18,9.00
2021,05,04,08,19,9.00
2021,05,04,08,20,9.10
2021,05,04,08,21,9.10
2021,05,04,08,22,9.10
2021,05,04,08,23,9.20
2021,05,04,08,24,9.20
2021,05,04,08,25,9.20
2021,05,04,08,26,9.30
2021,05,04,08,27,9.30
2021,05,04,08,28,9.40
2021,05,04,08,29,9.40
2021,05,04,08,30,9.50
2021,05,04,08,31,9.50
2021,05,04,08,32,9.50
2021,05,04,08,33,9.60
2021,05,04,08,34,9.60
2021,05,04,08,35,9.60
2021,05,04,08,36,9.70
2021,05,04,08,37,9.70
2021,05,04,08,38,9.80
2021,05,04,08,39,9.80
2021,05,04,08,40,9.80
2021,05,04,08,41,9.80
2021,05,04,08,42,9.90
2021,05,04,08,43,9.90
2021,05,04,08,44,9.90
2021,05,04,08,45,9.90
2021,05,04,08,46,9.90
2021,05,04,08,47,9.90
2021,05,04,08,48,9.90
2021,05,04,08,49,9.90
2021,05,04,08,50,9.90
2021,05,04,08,51,9.90
2021,05,04,08,52,9.90
2021,05,04,08,53,9.90
2021,05,04,08,54,9.90
2021,05,04,08,55,9.90
2021,05,04,13,09,14.60
2021,05,04,13,10,14.70
2021,05,04,13,11,14.80
2021,05,04,13,12,14.80
2021,05,04,13,13,14.90
2021,05,04,13,14,14.90
2021,05,04,13,15,14.90
2021,05,04,13,16,15.00
2021,05,04,13,17,15.10
2021,05,04,13,18,15.20
2021,05,04,13,19,15.30
2021,05,04,13,20,15.40
2021,05,04,13,21,15.50
2021,05,04,13,22,15.50
2021,05,04,13,23,15.60
2021,05,04,13,24,15.60
2021,05,04,13,25,15.60
2021,05,04,13,26,15.60
2021,05,04,13,27,15.80
2021,05,04,13,28,15.90
2021,05,04,13,29,15.90
2021,05,04,13,30,15.90
2021,05,04,13,31,15.80
2021,05,04,13,32,15.90
2021,05,04,13,33,16.00
2021,05,04,13,34,16.00
2021,05,04,13,35,16.00
2021,05,04,13,36,15.90
2021,05,04,13,37,15.80
2021,05,04,13,38,15.80
2021,05,04,13,39,15.80
2021,05,04,13,40,15.80
2021,05,04,13,41,15.80
2021,05,04,13,42,15.80
2021,05,04,13,43,15.80
2021,05,04,13,44,15.80
2021,05,04,13,45,15.60
2021,05,04,13,46,15.40
2021,05,04,13,47,15.30
2021,05,04,13,48,15.30
2021,05,04,13,49,15.30
2021,05,04,13,50,15.40
2021,05,04,13,51,15.60
2021,05,04,13,52,15.60
2021,05,04,13,53,15.60
2021,05,04,13,54,15.60
2021,05,04,13,55,15.60
2021,05,04,13,56,15.60
2021,05,04,13,57,15.60
2021,05,04,13,58,15.60
2021,05,04,13,59,15.60
2021,05,04,14,00,15.70
2021,05,04,14,01,15.70
2021,05,04,14,02,15.80
2021,05,04,14,03,15.90
2021,05,04,14,04,16.10
2021,05,04,14,05,16.10
2021,05,04,14,06,16.20
2021,05,04,14,07,16.20
2021,05,04,14,08,16.10
2021,05,04,14,09,15.90
2021,05,04,14,10,15.80
2021,05,04,14,11,15.60
2021,05,04,14,12,15.30
2021,05,04,14,13,15.20
2021,05,04,14,14,15.30
2021,05,04,14,15,15.30
2021,05,04,14,16,15.30
2021,05,04,14,17,15.30
2021,05,04,14,18,15.30
2021,05,04,14,19,15.20
2021,05,04,14,20,15.10
2021,05,04,14,21,15.00
2021,05,04,14,22,14.90
2021,05,04,14,23,14.90
2021,05,04,14,24,14.90
2021,05,04,14,25,14.90
2021,05,04,14,26,15.00
2021,05,04,14,27,15.00
2021,05,04,14,28,15.10
2021,05,04,14,29,15.20
2021,05,04,14,30,15.30
2021,05,04,14,31,15.40
2021,05,04,14,32,15.40
2021,05,04,14,33,15.50
2021,05,04,14,34,15.50
2021,05,04,14,35,15.70
2021,05,04,14,36,15.80
2021,05,04,14,37,15.80
2021,05,04,14,38,15.80
2021,05,04,14,39,15.80
2021,05,04,14,40,15.80
2021,05,04,14,41,15.90
2021,05,04,14,42,15.90
2021,05,04,14,43,15.90
2021,05,04,14,44,15.80
2021,05,04,14,45,15.70
2021,05,04,14,46,15.70
2021,05,04,14,47,15.50
2021,05,04,14,48,15.50
2021,05,04,14,49,15.50
2021,05,04,14,50,15.50
2021,05,04,14,51,15.40
2021,05,04,14,52,15.30
2021,05,04,14,53,15.30
2021,05,04,14,54,15.20
2021,05,04,14,55,15.30
2021,05,04,14,56,15.30
2021,05,04,14,57,15.30
2021,05,04,14,58,15.40
2021,05,04,14,59,15.50
2021,05,04,15,00,15.60
2021,05,04,15,01,15.70
2021,05,04,15,02,15.70
2021,05,04,15,03,15.80
2021,05,04,15,04,16.00
2021,05,04,15,05,16.10
2021,05,04,15,06,16.20
2021,05,04,15,07,16.20
2021,05,04,15,08,16.30
2021,05,04,15,09,16.30
2021,05,04,15,10,16.20
2021,05,04,15,11,16.20
2021,05,04,15,12,16.00
2021,05,04,15,13,16.00
2021,05,04,15,14,15.90
2021,05,04,15,15,15.90
2021,05,04,15,16,15.90
2021,05,04,15,17,16.00
2021,05,04,15,18,16.10
2021,05,04,15,19,16.20
2021,05,04,15,20,16.30
2021,05,04,15,21,16.30
2021,05,04,15,22,16.20
2021,05,04,15,23,16.20
2021,05,04,15,24,16.10
2021,05,04,15,25,16.10
2021,05,04,15,26,16.10
2021,05,04,15,27,16.10
2021,05,04,15,28,16.10
2021,05,04,15,29,16.10
2021,05,04,15,30,16.10
2021,05,04,15,31,16.10
2021,05,04,15,32,16.10
2021,05,04,15,33,16.10
2021,05,04,15,34,16.20
2021,05,04,15,35,16.20
2021,05,04,15,36,16.20
2021,05,04,15,37,16.30
2021,05,04,15,38,16.30
2021,05,04,15,39,16.20
2021,05,04,15,40,16.20
2021,05,04,15,41,16.10
2021,05,04,15,42,16.00
2021,05,04,15,43,15.90
2021,05,04,15,44,15.80
2021,05,04,15,45,15.80
2021,05,04,15,46,15.70
2021,05,04,15,47,15.70
2021,05,04,15,48,15.60
2021,05,04,15,49,15.60
2021,05,04,15,50,15.60
2021,05,04,15,51,15.60
2021,05,04,15,52,15.70
2021,05,04,15,53,15.70
2021,05,04,15,54,15.70
2021,05,04,15,55,15.60
2021,05,04,15,56,15.50
2021,05,04,15,57,15.50
2021,05,04,15,58,15.40
2021,05,04,15,59,15.40
2021,05,04,16,00,15.40
2021,05,04,16,01,15.40
2021,05,04,16,02,15.40
2021,05,04,16,03,15.40
2021,05,04,16,04,15.40
2021,05,04,16,05,15.40
2021,05,04,16,06,15.30
2021,05,04,16,07,15.30
2021,05,04,16,08,15.20
2021,05,04,16,09,15.20
2021,05,04,16,10,15.20
2021,05,04,16,11,15.20
2021,05,04,16,12,15.20
2021,05,04,16,13,15.20
2021,05,04,16,14,15.20
2021,05,04,16,15,15.20
2021,05,04,16,16,15.20
2021,05,04,16,17,15.10
2021,05,04,16,18,15.10
2021,05,04,16,19,15.10
2021,05,04,16,20,15.10
2021,05,04,16,21,15.10
2021,05,04,16,22,15.10
2021,05,04,16,23,15.00
2021,05,04,16,24,15.00
2021,05,04,16,25,15.00
2021,05,04,16,26,15.00
2021,05,04,16,27,14.90
2021,05,04,16,28,14.90
2021,05,04,16,29,14.90
2021,05,04,16,30,14.80
2021,05,04,16,31,14.80
2021,05,04,16,32,14.80
2021,05,04,16,33,14.80
2021,05,04,16,34,14.90
2021,05,04,16,35,14.90
2021,05,04,16,36,14.90
2021,05,04,16,37,14.90
2021,05,04,16,38,15.00
2021,05,04,16,39,15.00
2021,05,04,16,40,15.00
2021,05,04,16,41,15.00
2021,05,04,16,42,15.00
2021,05,04,16,43,15.00
2021,05,04,16,44,15.10
2021,05,04,16,45,15.20
2021,05,04,16,46,15.20
2021,05,04,16,47,15.30
2021,05,04,16,48,15.30
2021,05,04,16,49,15.30
2021,05,04,16,50,15.30
2021,05,04,16,51,15.20
2021,05,04,16,52,15.20
2021,05,04,16,53,15.20
2021,05,04,16,54,15.10
2021,05,04,16,55,15.10
2021,05,04,16,56,15.10
2021,05,04,16,57,15.10
2021,05,04,16,58,15.10
2021,05,04,16,59,15.10
2021,05,04,17,00,15.10
2021,05,04,17,01,15.10
2021,05,04,17,02,15.00
2021,05,04,17,03,15.00
2021,05,04,17,04,15.00
2021,05,04,17,05,15.10
2021,05,04,17,06,15.10
2021,05,04,17,07,15.10
2021,05,04,17,08,15.00
2021,05,04,17,09,15.00
2021,05,04,17,10,15.00
2021,05,04,17,11,14.90
2021,05,04,17,12,14.90
2021,05,04,17,13,14.90
2021,05,04,17,14,14.90
2021,05,04,17,15,14.90
2021,05,04,17,16,14.90
2021,05,04,17,17,14.80
2021,05,04,17,18,14.80
2021,05,04,17,19,14.70
2021,05,04,17,20,14.70
2021,05,04,17,21,14.70
2021,05,04,17,22,14.70
2021,05,04,17,23,14.70
2021,05,04,17,24,14.70
2021,05,04,17,25,14.70
2021,05,04,17,26,14.70
2021,05,04,17,27,14.70
2021,05,04,17,28,14.70
2021,05,04,17,29,14.70
2021,05,04,17,30,14.70
2021,05,04,17,31,14.70
2021,05,04,17,32,14.70
2021,05,04,17,33,14.70
2021,05,04,17,34,14.60
2021,05,04,17,35,14.60
2021,05,04,17,36,14.60
2021,05,04,17,37,14.60
2021,05,04,17,38,14.60
2021,05,04,17,39,14.60
2021,05,04,17,40,14.50
2021,05,04,17,41,14.50
2021,05,04,17,42,14.50
2021,05,04,17,43,14.40
2021,05,04,17,44,14.40
2021,05,04,17,45,14.40
2021,05,04,17,46,14.40
2021,05,04,17,47,14.40
2021,05,04,17,48,14.40
2021,05,04,17,49,14.40
2021,05,04,17,50,14.40
2021,05,04,17,51,14.40
2021,05,04,17,52,14.30
2021,05,04,17,53,14.30
2021,05,04,17,54,14.30
2021,05,04,17,55,14.30
2021,05,04,17,56,14.30
2021,05,04,17,57,14.30
2021,05,04,17,58,14.30
2021,05,04,17,59,14.30
2021,05,04,18,00,14.30
2021,05,04,18,01,14.30
2021,05,04,18,02,14.30
2021,05,04,18,03,14.30
2021,05,04,18,04,14.20
2021,05,04,18,05,14.20
2021,05,04,18,06,14.20
2021,05,04,18,07,14.20
2021,05,04,18,08,14.20
2021,05,04,18,09,14.20
2021,05,04,18,10,14.20
2021,05,04,18,11,14.10
2021,05,04,18,12,14.10
2021,05,04,18,13,14.10
2021,05,04,18,14,14.10
2021,05,04,18,15,14.10
2021,05,04,18,16,14.10
2021,05,04,18,17,14.10
2021,05,04,18,18,14.10
2021,05,04,18,19,14.00
2021,05,04,18,20,14.10
2021,05,04,18,21,14.10
2021,05,04,18,22,14.10
2021,05,04,18,23,14.00
2021,05,04,18,24,14.00
2021,05,04,18,25,14.00
2021,05,04,18,26,14.00
2021,05,04,18,27,13.90
2021,05,04,18,28,13.90
2021,05,04,18,29,13.90
2021,05,04,18,30,13.90
2021,05,04,18,31,13.80
2021,05,04,18,32,13.80
2021,05,04,18,33,13.80
2021,05,04,18,34,13.80
2021,05,04,18,35,13.70
2021,05,04,18,36,13.70
2021,05,04,18,37,13.70
2021,05,04,18,38,13.70
2021,05,04,18,39,13.70
2021,05,04,18,40,13.60
2021,05,04,18,41,13.60
2021,05,04,18,42,13.60
2021,05,04,18,43,13.60
2021,05,04,18,44,13.60
2021,05,04,18,45,13.60
2021,05,04,18,46,13.60
2021,05,04,18,47,13.50
2021,05,04,18,48,13.50
2021,05,04,18,49,13.50
2021,05,04,18,50,13.40
2021,05,04,18,51,13.40
2021,05,04,18,52,13.40
2021,05,04,18,53,13.40
2021,05,04,18,54,13.30
2021,05,04,18,55,13.30
2021,05,04,18,56,13.30
2021,05,04,18,57,13.30
2021,05,04,18,58,13.30
2021,05,04,18,59,13.30
2021,05,04,19,00,13.30
2021,05,04,19,01,13.30
2021,05,04,19,02,13.20
2021,05,04,19,03,13.20
2021,05,04,19,04,13.20
2021,05,04,19,05,13.20
2021,05,04,19,06,13.20
2021,05,04,19,07,13.20
2021,05,04,19,08,13.20
2021,05,04,19,09,13.20
2021,05,04,19,10,13.20
2021,05,04,19,11,13.20
2021,05,04,19,12,13.10
2021,05,04,19,13,13.10
2021,05,04,19,14,13.10
2021,05,04,19,15,13.10
2021,05,04,19,16,13.10
2021,05,04,19,17,13.10
2021,05,04,19,18,13.10
2021,05,04,19,19,13.00
2021,05,04,19,20,13.10
2021,05,04,19,21,13.10
2021,05,04,19,22,13.10
2021,05,04,19,23,13.10
2021,05,04,19,24,13.10
2021,05,04,19,25,13.10
2021,05,04,19,26,13.00
2021,05,04,19,27,13.00
2021,05,04,19,28,13.00
2021,05,04,19,29,13.00
2021,05,04,19,30,12.90
2021,05,04,19,31,12.90
2021,05,04,19,32,12.90
2021,05,04,19,33,12.90
2021,05,04,19,34,12.90
2021,05,04,19,35,12.80
2021,05,04,19,36,12.80
2021,05,04,19,37,12.80
2021,05,04,19,38,12.70
2021,05,04,19,39,12.70
2021,05,04,19,40,12.60
2021,05,04,19,41,12.60
2021,05,04,19,42,12.50
2021,05,04,19,43,12.50
2021,05,04,19,44,12.40
2021,05,04,19,45,12.40
2021,05,04,19,46,12.40
2021,05,04,19,47,12.30
2021,05,04,19,48,12.30
2021,05,04,19,49,12.30
2021,05,04,19,50,12.20
2021,05,04,19,51,12.20
2021,05,04,19,52,12.20
2021,05,04,19,53,12.20
2021,05,04,19,54,12.10
2021,05,04,19,55,12.10
2021,05,04,19,56,12.10
2021,05,04,19,57,12.00
2021,05,04,19,58,12.00
2021,05,04,19,59,11.90
2021,05,04,20,00,11.90
2021,05,04,20,01,11.90
2021,05,04,20,02,11.80
2021,05,04,20,03,11.80
2021,05,04,20,04,11.80
2021,05,04,20,05,11.80
2021,05,04,20,06,11.80
2021,05,04,20,07,11.70
2021,05,04,20,08,11.70
2021,05,04,20,09,11.70
2021,05,04,20,10,11.70
2021,05,04,20,11,11.70
2021,05,04,20,12,11.70
2021,05,04,20,13,11.60
2021,05,04,20,14,11.60
2021,05,04,20,15,11.60
2021,05,04,20,16,11.60
2021,05,04,20,17,11.60
2021,05,04,20,18,11.50
2021,05,04,20,19,11.50
2021,05,04,20,20,11.50
2021,05,04,20,21,11.40
2021,05,04,20,22,11.40
2021,05,04,20,23,11.40
2021,05,04,20,24,11.40
2021,05,04,20,25,11.40
2021,05,04,20,26,11.40
2021,05,04,20,27,11.40
2021,05,04,20,28,11.40
2021,05,04,20,29,11.40
2021,05,04,20,30,11.30
2021,05,04,20,31,11.30
2021,05,04,20,32,11.30
2021,05,04,20,33,11.30
2021,05,04,20,34,11.30
2021,05,04,20,35,11.30
2021,05,04,20,36,11.30
2021,05,04,20,37,11.30
2021,05,04,20,38,11.30
2021,05,04,20,39,11.30
2021,05,04,20,40,11.20
2021,05,04,20,41,11.20
2021,05,04,20,42,11.20
2021,05,04,20,43,11.20
2021,05,04,20,44,11.20
2021,05,04,20,45,11.20
2021,05,04,20,46,11.10
2021,05,04,20,47,11.10
2021,05,04,20,48,11.10
2021,05,04,20,49,11.10
2021,05,04,20,50,11.10
2021,05,04,20,51,11.00
2021,05,04,20,52,11.00
2021,05,04,20,53,11.00
2021,05,04,20,54,10.90
2021,05,04,20,55,10.90
2021,05,04,20,56,10.90
2021,05,04,20,57,10.80
2021,05,04,20,58,10.80
2021,05,04,20,59,10.80
2021,05,04,21,00,10.80
2021,05,04,21,01,10.70
2021,05,04,21,02,10.70
2021,05,04,21,03,10.60
2021,05,04,21,04,10.60
2021,05,04,21,05,10.60
2021,05,04,21,06,10.50
2021,05,04,21,07,10.50
2021,05,04,21,08,10.40
2021,05,04,21,09,10.40
2021,05,04,21,10,10.30
2021,05,04,21,11,10.30
2021,05,04,21,12,10.20
2021,05,04,21,13,10.20
2021,05,04,21,14,10.20
2021,05,04,21,15,10.10
2021,05,04,21,16,10.10
2021,05,04,21,17,10.10
2021,05,04,21,18,10.10
2021,05,04,21,19,10.00
2021,05,04,21,20,10.00
2021,05,04,21,21,9.90
2021,05,04,21,22,9.90
2021,05,04,21,23,9.90
2021,05,04,21,24,9.80
2021,05,04,21,25,9.80
2021,05,04,21,26,9.80
2021,05,04,21,27,9.70
2021,05,04,21,28,9.70
2021,05,04,21,29,9.70
2021,05,04,21,30,9.60
2021,05,04,21,31,9.60
2021,05,04,21,32,9.50
2021,05,04,21,33,9.50
2021,05,04,21,34,9.40
2021,05,04,21,35,9.30
2021,05,04,21,36,9.30
2021,05,04,21,37,9.30
2021,05,04,21,38,9.20
2021,05,04,21,39,9.20
2021,05,04,21,40,9.10
2021,05,04,21,41,9.10
2021,05,04,21,42,9.00
2021,05,04,21,43,9.00
2021,05,04,21,44,9.00
2021,05,04,21,45,8.90
2021,05,04,21,46,8.90
2021,05,04,21,47,8.80
2021,05,04,21,48,8.80
2021,05,04,21,49,8.80
2021,05,04,21,50,8.80
2021,05,04,21,51,8.70
2021,05,04,21,52,8.70
2021,05,04,21,53,8.70
2021,05,04,21,54,8.60
2021,05,04,21,55,8.60
2021,05,04,21,56,8.60
2021,05,04,21,57,8.50